When you browse on this site, cookies collect data to enhance your experience and personalize the content and advertising you see.
Visit our Privacy Policy to learn more. By continuing to use the site, you agree to this use of cookies and data.
  • In Hungary
  • List of Countries
  • For 7 days
  • Water Temperature
  • Weather Map
  • News
  • Weather Widgets
  • user-avatar
    Login

    Hourly Weather Uglovoye

    Today, 19 November, Tuesday

    Time Temperature Precipitation Wind Pressure Humidity
    00:00 -14°C° 0 mm 4 mps 759 mmHg 78%
    01:00 -13°C° 0 mm 3 mps 759 mmHg 77%
    02:00 -13°C° 0 mm 3 mps 759 mmHg 77%
    03:00 -13°C° 0 mm 3 mps 759 mmHg 76%
    04:00 -13°C° 0 mm 3 mps 759 mmHg 76%
    05:00 -13°C° 0 mm 3 mps 759 mmHg 76%
    06:00 -12°C° 0 mm 2 mps 759 mmHg 76%
    07:00 -13°C° 0 mm 3 mps 759 mmHg 72%
    08:00 -14°C° 0 mm 4 mps 759 mmHg 68%
    09:00 -13°C° 0 mm 5 mps 759 mmHg 64%
    10:00 -14°C° 0 mm 6 mps 760 mmHg 63%
    11:00 -12°C° 0 mm 6 mps 760 mmHg 63%
    12:00 -12°C° 0 mm 6 mps 760 mmHg 62%
    13:00 -12°C° 0 mm 6 mps 760 mmHg 63%
    14:00 -12°C° 0 mm 6 mps 760 mmHg 64%
    15:00 -12°C° 0 mm 6 mps 760 mmHg 65%
    16:00 -12°C° 0 mm 5 mps 761 mmHg 69%
    17:00 -13°C° 0 mm 5 mps 761 mmHg 73%
    18:00 -12°C° 0 mm 4 mps 762 mmHg 76%
    19:00 -14°C° 0 mm 4 mps 763 mmHg 76%
    20:00 -14°C° 0 mm 4 mps 763 mmHg 76%
    21:00 -14°C° 0 mm 4 mps 764 mmHg 76%
    22:00 -15°C° 0 mm 4 mps 764 mmHg 76%
    23:00 -15°C° 0 mm 5 mps 765 mmHg 75%

    Tomorrow, 20 November, Wednesday

    Time Temperature Precipitation Wind Pressure Humidity
    00:00 -15°C° 0 mm 5 mps 765 mmHg 75%
    01:00 -15°C° 0 mm 5 mps 766 mmHg 76%
    02:00 -16°C° 0 mm 4 mps 766 mmHg 76%
    03:00 -16°C° 0 mm 4 mps 767 mmHg 77%
    04:00 -16°C° 0 mm 4 mps 767 mmHg 77%
    05:00 -16°C° 0 mm 4 mps 768 mmHg 78%
    06:00 -16°C° 0 mm 4 mps 768 mmHg 78%
    07:00 -15°C° 0 mm 4 mps 769 mmHg 76%
    08:00 -14°C° 0 mm 4 mps 769 mmHg 73%
    09:00 -14°C° 0 mm 4 mps 769 mmHg 70%
    10:00 -12°C° 0 mm 4 mps 769 mmHg 69%
    11:00 -11°C° 0 mm 4 mps 769 mmHg 68%
    12:00 -10°C° 0 mm 5 mps 769 mmHg 66%
    13:00 -9°C° 0 mm 4 mps 769 mmHg 68%
    14:00 -9°C° 0 mm 4 mps 769 mmHg 69%
    15:00 -8°C° 0 mm 3 mps 769 mmHg 70%
    16:00 -9°C° 0 mm 3 mps 769 mmHg 74%
    17:00 -9°C° 0 mm 2 mps 770 mmHg 78%
    18:00 -9°C° 0 mm 1 mps 770 mmHg 81%
    19:00 -9°C° 0 mm 1 mps 770 mmHg 82%
    20:00 -9°C° 0 mm 1 mps 771 mmHg 82%
    21:00 -10°C° 0 mm 1 mps 771 mmHg 82%
    22:00 -10°C° 0 mm 1 mps 771 mmHg 81%
    23:00 -10°C° 0 mm 1 mps 771 mmHg 81%

    Day after tomorrow, 21 November, Thursday

    Time Temperature Precipitation Wind Pressure Humidity
    00:00 -10°C° 0 mm 1 mps 772 mmHg 81%
    01:00 -10°C° 0 mm 1 mps 772 mmHg 81%
    02:00 -10°C° 0 mm 1 mps 772 mmHg 81%
    03:00 -10°C° 0 mm 1 mps 772 mmHg 81%
    04:00 -10°C° 0 mm 1 mps 772 mmHg 80%
    05:00 -10°C° 0 mm 1 mps 772 mmHg 79%
    06:00 -10°C° 0 mm 1 mps 772 mmHg 79%
    07:00 -9°C° 0 mm 1 mps 772 mmHg 76%
    08:00 -8°C° 0 mm 1 mps 772 mmHg 74%
    09:00 -7°C° 0 mm 1 mps 772 mmHg 71%
    10:00 -4°C° 0 mm 1 mps 772 mmHg 68%
    11:00 -3°C° 0 mm 0 mps 772 mmHg 66%
    12:00 -2°C° 0 mm 0 mps 771 mmHg 63%
    13:00 -1°C° 0 mm 0 mps 771 mmHg 65%
    14:00 -1°C° 0 mm 0 mps 771 mmHg 68%
    15:00 0°C° 0 mm 1 mps 771 mmHg 71%
    16:00 -2°C° 0 mm 0 mps 771 mmHg 74%
    17:00 -3°C° 0 mm 0 mps 771 mmHg 77%
    18:00 -4°C° 0 mm 0 mps 771 mmHg 80%
    19:00 -3°C° 0 mm 1 mps 771 mmHg 81%
    20:00 -3°C° 0 mm 1 mps 771 mmHg 81%
    21:00 -3°C° 0 mm 1 mps 771 mmHg 82%
    22:00 -2°C° 0 mm 1 mps 771 mmHg 82%
    23:00 -2°C° 0 mm 1 mps 771 mmHg 83%

    22 November, Friday

    Time Temperature Precipitation Wind Pressure Humidity
    00:00 -2°C° 0 mm 1 mps 771 mmHg 83%
    01:00 -2°C° 0 mm 1 mps 771 mmHg 84%
    02:00 -2°C° 0 mm 1 mps 770 mmHg 84%
    03:00 -1°C° 0 mm 1 mps 770 mmHg 85%
    04:00 -1°C° 0 mm 1 mps 770 mmHg 85%
    05:00 0°C° 0 mm 1 mps 770 mmHg 86%
    06:00 0°C° 0 mm 1 mps 770 mmHg 86%
    07:00 +1°C° 0 mm 1 mps 770 mmHg 86%
    08:00 +2°C° 0 mm 1 mps 770 mmHg 86%
    09:00 +2°C° 0 mm 1 mps 770 mmHg 86%
    10:00 +3°C° 0 mm 1 mps 770 mmHg 87%
    11:00 +5°C° 0 mm 1 mps 769 mmHg 87%
    12:00 +6°C° 0 mm 1 mps 769 mmHg 88%
    13:00 +6°C° 0 mm 1 mps 769 mmHg 90%
    14:00 +5°C° 0 mm 2 mps 768 mmHg 91%
    15:00 +5°C° 0 mm 2 mps 768 mmHg 93%
    16:00 +4°C° 0 mm 2 mps 768 mmHg 93%
    17:00 +3°C° 0 mm 2 mps 768 mmHg 92%
    18:00 +3°C° 0 mm 2 mps 768 mmHg 92%
    19:00 +2°C° 0 mm 3 mps 768 mmHg 92%
    20:00 +2°C° 0 mm 3 mps 768 mmHg 92%
    21:00 +2°C° 0 mm 3 mps 768 mmHg 92%
    22:00 +2°C° 0 mm 3 mps 768 mmHg 93%
    23:00 +3°C° 0 mm 3 mps 768 mmHg 94%

    23 November, Saturday

    Time Temperature Precipitation Wind Pressure Humidity
    00:00 +4°C° 0 mm 3 mps 768 mmHg 95%
    01:00 +4°C° 0 mm 3 mps 767 mmHg 95%
    02:00 +5°C° 0 mm 2 mps 767 mmHg 96%
    03:00 +5°C° 0 mm 2 mps 767 mmHg 97%
    04:00 +5°C° 0 mm 2 mps 767 mmHg 97%
    05:00 +5°C° 0 mm 2 mps 766 mmHg 97%
    06:00 +5°C° 0 mm 2 mps 766 mmHg 97%
    07:00 +5°C° 0 mm 2 mps 766 mmHg 97%
    08:00 +6°C° 0 mm 2 mps 766 mmHg 97%
    09:00 +5°C° 0 mm 3 mps 766 mmHg 96%
    10:00 +5°C° 0 mm 3 mps 765 mmHg 96%
    11:00 +7°C° 0 mm 3 mps 764 mmHg 96%
    12:00 +7°C° 0 mm 3 mps 764 mmHg 96%
    13:00 +7°C° 0 mm 3 mps 763 mmHg 96%
    14:00 +7°C° 0 mm 3 mps 763 mmHg 96%
    15:00 +7°C° 0 mm 3 mps 763 mmHg 96%
    16:00 +7°C° 0.1 mm 2 mps 763 mmHg 96%
    17:00 +6°C° 0.1 mm 2 mps 763 mmHg 96%
    18:00 +7°C° 0.1 mm 1 mps 763 mmHg 96%
    19:00 +7°C° 0 mm 1 mps 763 mmHg 96%
    20:00 +6°C° 0 mm 1 mps 763 mmHg 96%
    21:00 +6°C° 0 mm 1 mps 764 mmHg 96%
    22:00 +6°C° 0.3 mm 1 mps 763 mmHg 96%
    23:00 +5°C° 0.3 mm 2 mps 763 mmHg 96%

    24 November, Sunday

    Time Temperature Precipitation Wind Pressure Humidity
    00:00 +3°C° 0.3 mm 3 mps 763 mmHg 97%
    01:00 +1°C° 0.8 mm 4 mps 763 mmHg 96%
    02:00 0°C° 0.8 mm 5 mps 763 mmHg 95%
    03:00 -2°C° 0.8 mm 7 mps 762 mmHg 94%
    04:00 -3°C° 0.9 mm 7 mps 762 mmHg 94%
    05:00 -4°C° 0.9 mm 7 mps 762 mmHg 93%
    06:00 -4°C° 0.9 mm 7 mps 762 mmHg 92%
    07:00 -6°C° 0.7 mm 7 mps 763 mmHg 91%
    08:00 -6°C° 0.7 mm 7 mps 763 mmHg 90%
    09:00 -6°C° 0.7 mm 7 mps 764 mmHg 89%
    10:00 -6°C° 0.3 mm 7 mps 764 mmHg 88%
    11:00 -7°C° 0.3 mm 7 mps 764 mmHg 87%
    12:00 -7°C° 0.3 mm 8 mps 764 mmHg 86%
    13:00 -7°C° 0 mm 7 mps 765 mmHg 83%
    14:00 -7°C° 0 mm 7 mps 765 mmHg 80%
    15:00 -7°C° 0 mm 7 mps 765 mmHg 78%
    16:00 -8°C° 0 mm 7 mps 766 mmHg 77%
    17:00 -9°C° 0 mm 6 mps 767 mmHg 77%
    18:00 -9°C° 0 mm 6 mps 767 mmHg 77%
    19:00 -10°C° 0 mm 6 mps 768 mmHg 76%
    20:00 -10°C° 0 mm 6 mps 769 mmHg 75%
    21:00 -10°C° 0 mm 6 mps 770 mmHg 75%
    22:00 -11°C° 0 mm 6 mps 770 mmHg 74%
    23:00 -11°C° 0 mm 6 mps 770 mmHg 73%
    Show more